Showing default

NOAA 4, 7529

Orbit data source: Space-Track

NOAA 4, 7529 is a payload satellite owned by NOAA (US) in SSO that was launched on Fri, 15 Nov 1974 UTC via a DELTA 2310 launch vehicle from the Air Force Western Test Range (AFWTR). Payload-class satellites include a variety of spacecraft equipped with specific instruments for various scientific and technological missions. These include communications satellites like Starlink; space stations such as the ISS; scientific satellites like the Hubble; Earth observation satellites from companies like Planet Labs, Umbra, and HawkEye 360; GPS; miniature CubeSats for education and research; and military/defense satellites.

Loading next visibility...
Identifier
7529, 1974-089A
Orbit
SSO
Country
Flag of USUS
Related business
Manufacturer
RCA/East Windsor
Mission
Non-operational spacecraft
Bus & Motor
TIROS M, Unknown motor
Mass
345 kg wet, 345 kg dry
Launch date (UTC)
1974-11-15 (51 years ago)
Launch vehicle
DELTA 2310
Launch site
Air Force Western Test Range (AFWTR)
Object type
Payload
Rocket body
Debris
Shape & HBR
Unknown
Radar Cross Section
Large (>1 m²)

Expand to show TLE details & history
Last TLE update: 14 hours ago

TLE from 14 hours ago
0 NOAA 4
1 07529U 74089A   25348.93818316 -.00000018  00000-0  17943-3 0  9999
2 07529 102.0071 354.7756 0009030 187.4194 238.6046 12.53199326336449
Epoch: 2025-12-14T22:30Z
TLE epoch observation values (Epoch: 2025-12-14T22:30:59.025Z)
Latitude
63.35442°
Longitude
-91.76257°
Altitude
1,465.539 km
Speed
7.134 km/s
True Right ascension
21h 59m 18s
True Declination
63° 13' 44"
Sunlit
Object was in daylight at epoch
Visualization orbit readout
Latitude
Unknown
Longitude
Unknown
Altitude
Unknown
Speed
Unknown
Apparent Right ascension
Unknown
Apparent Declination
Unknown
Sunlit
N/A
Visualization observer readout
Local Sidereal Time
10:38:31
Azimuth
Unknown
Elevation
Unknown
Doppler factor
Unknown
Orbital elements
Apogee altitude
1,455.767 km
Perigee altitude
1,441.632 km
Semi-major axis
7,826.836 km
Eccentricity
0.0009
Inclination
102.0071°
RAAN
354.7756°
Arg. of periapsis
187.4194°
True anomaly
238.51633°
Mean anomaly
238.6046°
Eccentric anomaly
238.56046°
Mean motion
3.13447 °/min
Orbital period
114.85 mins
BSTAR
0.00017943
Loading maneuver chart data...
Computing Atmospheric mass density...

Documentation

Showing up to 5 results
|